Total_Precipitation_Accumulation
0.23 0.37 0.57 0.67 0.86 0.52 0.26 0.16 0.12 0.10 0.09 0.05 0.04 0.05 0.17 0.34 0.51 0.64 0.24 0.09 0.04 0.04 0.05 0.09 0.22 0.26 0.23 0.24 0.26 0.34 0.37 0.46 0.40 0.34 0.25 0.20 0.17 0.16 0.13 0.11 0.11 0.12 0.10 0.11 0.13 0.25 0.26 0.25 0.35
0.30 0.72 0.69 0.88 0.78 0.36 0.29 0.20 0.20 0.17 0.09 0.07 0.05 0.05 0.11 0.12 0.10 0.18 0.26 0.16 0.06 0.06 0.09 0.15 0.25 0.24 0.25 0.27 0.34 0.43 0.45 0.55 0.54 0.36 0.22 0.15 0.17 0.24 0.20 0.19 0.27 0.15 0.08 0.08 0.12 0.22 0.27 0.26 0.30
0.46 0.73 0.77 0.86 0.42 0.34 0.37 0.27 0.22 0.15 0.09 0.08 0.07 0.06 0.11 0.16 0.20 0.29 0.36 0.17 0.08 0.09 0.15 0.29 0.39 0.32 0.30 0.31 0.42 0.51 0.53 0.59 0.53 0.30 0.15 0.13 0.18 0.27 0.30 0.32 0.33 0.12 0.07 0.07 0.09 0.17 0.23 0.23 0.22
0.46 0.67 0.76 0.59 0.37 0.34 0.35 0.31 0.17 0.13 0.09 0.04 0.07 0.10 0.09 0.18 0.26 0.35 0.31 0.22 0.14 0.15 0.18 0.30 0.41 0.40 0.37 0.36 0.48 0.55 0.59 0.62 0.53 0.30 0.18 0.17 0.24 0.27 0.27 0.35 0.23 0.13 0.10 0.08 0.08 0.12 0.16 0.15 0.17
0.41 0.69 0.76 0.58 0.45 0.43 0.37 0.27 0.16 0.16 0.12 0.07 0.06 0.16 0.15 0.22 0.36 0.43 0.39 0.32 0.25 0.27 0.26 0.31 0.41 0.45 0.44 0.44 0.57 0.65 0.65 0.66 0.55 0.35 0.26 0.23 0.23 0.24 0.26 0.31 0.18 0.13 0.09 0.07 0.08 0.10 0.12 0.13 0.15
0.44 0.70 0.90 0.72 0.55 0.53 0.48 0.33 0.23 0.19 0.14 0.12 0.15 0.23 0.21 0.26 0.39 0.48 0.50 0.53 0.54 0.50 0.39 0.34 0.40 0.48 0.51 0.55 0.65 0.68 0.66 0.62 0.55 0.38 0.29 0.27 0.26 0.24 0.28 0.28 0.17 0.12 0.09 0.06 0.06 0.09 0.12 0.13 0.13
0.38 0.65 0.82 0.56 0.58 0.69 0.56 0.33 0.28 0.23 0.22 0.21 0.19 0.29 0.35 0.35 0.42 0.55 0.70 0.76 0.80 0.75 0.65 0.48 0.47 0.52 0.61 0.72 0.75 0.76 0.73 0.67 0.59 0.43 0.34 0.29 0.26 0.23 0.24 0.22 0.13 0.10 0.09 0.07 0.06 0.06 0.07 0.07 0.10
0.17 0.30 0.50 0.57 0.65 0.82 0.45 0.28 0.19 0.17 0.17 0.18 0.20 0.36 0.43 0.39 0.44 0.59 0.85 0.96 1.00 0.95 0.83 0.69 0.62 0.62 0.65 0.67 0.75 0.82 0.84 0.80 0.74 0.59 0.46 0.38 0.30 0.21 0.22 0.15 0.12 0.12 0.12 0.11 0.08 0.06 0.04 0.04 0.07
0.18 0.32 0.67 0.84 0.70 0.61 0.32 0.26 0.17 0.14 0.19 0.24 0.18 0.23 0.31 0.32 0.42 0.56 0.72 0.83 0.93 0.91 0.88 0.91 0.88 0.85 0.83 0.75 0.78 0.93 0.98 0.96 0.82 0.72 0.61 0.51 0.36 0.29 0.29 0.22 0.22 0.20 0.19 0.19 0.16 0.10 0.05 0.03 0.04
0.23 0.43 0.69 0.62 0.47 0.37 0.26 0.23 0.18 0.15 0.20 0.21 0.18 0.23 0.34 0.32 0.41 0.53 0.60 0.66 0.66 0.69 0.71 0.78 0.84 0.92 0.95 0.85 1.02 1.25 1.13 0.99 0.77 0.77 0.66 0.61 0.53 0.48 0.35 0.34 0.35 0.34 0.31 0.25 0.20 0.14 0.07 0.02 0.01
0.20 0.34 0.36 0.40 0.35 0.25 0.21 0.19 0.20 0.18 0.20 0.19 0.20 0.22 0.27 0.33 0.38 0.45 0.51 0.59 0.60 0.63 0.62 0.63 0.69 0.78 0.87 0.99 1.20 1.51 1.54 1.31 1.12 0.93 0.84 0.77 0.62 0.51 0.43 0.40 0.41 0.38 0.35 0.27 0.24 0.18 0.10 0.06 0.04
0.13 0.17 0.20 0.25 0.26 0.22 0.17 0.13 0.13 0.14 0.16 0.16 0.18 0.21 0.26 0.34 0.40 0.43 0.46 0.49 0.51 0.53 0.57 0.49 0.46 0.58 0.68 0.79 0.91 1.20 1.27 1.21 1.07 0.89 0.80 0.84 0.76 0.62 0.54 0.49 0.52 0.46 0.40 0.42 0.42 0.37 0.27 0.16 0.08
0.20 0.17 0.15 0.18 0.21 0.18 0.13 0.11 0.12 0.13 0.14 0.13 0.15 0.21 0.29 0.36 0.39 0.41 0.41 0.45 0.49 0.56 0.59 0.54 0.45 0.46 0.50 0.55 0.62 0.76 0.92 1.02 1.03 0.97 0.80 0.78 0.75 0.69 0.67 0.60 0.59 0.45 0.38 0.42 0.44 0.40 0.37 0.29 0.16
0.16 0.14 0.15 0.18 0.18 0.15 0.12 0.09 0.12 0.16 0.17 0.16 0.17 0.23 0.29 0.36 0.40 0.46 0.47 0.49 0.47 0.51 0.63 0.62 0.52 0.48 0.50 0.47 0.47 0.47 0.61 0.75 0.92 0.92 0.81 0.81 0.81 0.74 0.77 0.70 0.65 0.59 0.50 0.49 0.60 0.50 0.46 0.43 0.32
0.11 0.13 0.16 0.17 0.17 0.16 0.15 0.14 0.15 0.19 0.20 0.21 0.22 0.24 0.29 0.35 0.39 0.47 0.50 0.47 0.45 0.45 0.50 0.57 0.54 0.56 0.60 0.59 0.58 0.48 0.51 0.58 0.72 0.84 0.82 0.86 0.80 0.71 0.71 0.70 0.65 0.62 0.62 0.59 0.63 0.59 0.49 0.38 0.30
0.12 0.19 0.33 0.28 0.26 0.28 0.27 0.24 0.19 0.23 0.20 0.22 0.26 0.28 0.30 0.33 0.36 0.43 0.47 0.47 0.47 0.46 0.50 0.54 0.56 0.62 0.68 0.73 0.75 0.68 0.73 0.75 0.75 0.88 0.85 0.80 0.82 0.78 0.76 0.77 0.75 0.77 0.76 0.69 0.67 0.68 0.62 0.45 0.35
0.18 0.24 0.30 0.29 0.25 0.26 0.25 0.22 0.23 0.27 0.22 0.20 0.22 0.25 0.24 0.24 0.26 0.32 0.38 0.40 0.42 0.42 0.44 0.48 0.56 0.61 0.64 0.72 0.84 0.97 1.01 1.00 0.95 0.97 0.92 0.82 0.80 0.85 0.94 0.93 0.97 0.93 0.90 0.84 0.75 0.69 0.62 0.54 0.45
0.36 0.22 0.17 0.17 0.18 0.18 0.19 0.21 0.23 0.24 0.21 0.17 0.17 0.18 0.19 0.18 0.19 0.22 0.26 0.29 0.31 0.33 0.36 0.41 0.49 0.65 0.79 0.87 0.91 1.07 1.12 1.19 1.27 1.30 1.18 1.05 1.05 1.16 1.27 1.32 1.25 1.23 1.18 1.11 1.02 1.01 0.86 0.67 0.60
0.26 0.19 0.15 0.14 0.16 0.15 0.14 0.15 0.16 0.16 0.15 0.14 0.13 0.11 0.13 0.12 0.11 0.12 0.14 0.18 0.20 0.22 0.27 0.33 0.39 0.54 0.69 0.79 0.91 1.10 1.27 1.44 1.59 1.71 1.60 1.45 1.40 1.54 1.62 1.55 1.60 1.59 1.42 1.37 1.39 1.41 1.30 1.00 0.77
0.19 0.18 0.16 0.11 0.11 0.09 0.10 0.11 0.12 0.11 0.10 0.10 0.10 0.10 0.09 0.09 0.07 0.06 0.06 0.09 0.10 0.12 0.17 0.23 0.30 0.41 0.55 0.70 0.93 1.15 1.44 1.53 1.60 1.73 1.78 1.71 1.63 1.76 1.77 1.85 1.88 1.88 1.85 1.76 1.60 1.61 1.67 1.39 1.04
0.11 0.15 0.16 0.13 0.09 0.06 0.06 0.07 0.08 0.09 0.09 0.07 0.07 0.09 0.09 0.07 0.06 0.04 0.04 0.05 0.07 0.08 0.10 0.17 0.28 0.44 0.65 0.87 1.18 1.46 1.71 1.79 1.82 1.74 1.81 1.89 1.94 1.99 2.00 2.05 2.08 2.03 1.87 1.82 1.88 1.92 2.18 1.91 1.47
0.14 0.09 0.08 0.09 0.09 0.08 0.09 0.12 0.09 0.11 0.13 0.12 0.11 0.12 0.14 0.12 0.08 0.06 0.06 0.07 0.08 0.11 0.15 0.24 0.40 0.61 0.88 1.22 1.56 1.78 2.01 2.11 1.94 1.90 1.93 1.93 1.89 1.91 2.00 2.01 1.99 1.95 1.86 1.89 1.96 1.94 2.20 2.31 1.94
0.07 0.06 0.06 0.07 0.08 0.06 0.05 0.09 0.10 0.14 0.21 0.22 0.19 0.19 0.20 0.18 0.14 0.12 0.14 0.15 0.19 0.24 0.32 0.47 0.71 1.00 1.27 1.50 1.67 1.88 2.01 2.02 1.98 1.94 1.93 1.87 1.83 1.78 1.79 1.80 1.86 1.88 1.90 1.94 2.08 2.14 2.31 2.28 2.21
0.02 0.05 0.07 0.08 0.10 0.07 0.05 0.11 0.18 0.21 0.24 0.23 0.21 0.20 0.18 0.17 0.19 0.21 0.23 0.29 0.36 0.40 0.54 0.72 0.90 1.18 1.35 1.46 1.58 1.76 1.90 1.93 1.95 1.92 1.93 1.92 1.88 1.76 1.68 1.66 1.71 1.81 1.95 1.98 2.04 2.13 2.32 2.39 2.41
0.02 0.06 0.12 0.13 0.17 0.16 0.13 0.24 0.34 0.31 0.26 0.22 0.21 0.21 0.19 0.22 0.27 0.28 0.38 0.52 0.60 0.64 0.72 0.86 0.95 1.11 1.22 1.26 1.36 1.50 1.56 1.61 1.66 1.64 1.60 1.54 1.48 1.47 1.49 1.56 1.64 1.75 1.88 1.93 1.99 2.11 2.11 2.20 2.43
0.01 0.05 0.17 0.21 0.23 0.24 0.24 0.45 0.50 0.37 0.30 0.27 0.24 0.21 0.24 0.33 0.42 0.54 0.67 0.77 0.84 0.85 0.81 0.83 0.95 1.00 0.98 1.01 1.02 1.14 1.22 1.27 1.33 1.33 1.31 1.32 1.33 1.34 1.29 1.32 1.41 1.62 1.81 1.89 1.93 1.91 1.89 1.94 2.10
0.02 0.06 0.11 0.22 0.20 0.22 0.32 0.61 0.61 0.38 0.32 0.28 0.25 0.26 0.32 0.46 0.66 0.89 1.07 1.18 1.26 1.17 0.98 0.84 0.84 0.83 0.80 0.85 0.90 0.94 1.04 1.07 1.08 1.11 1.06 1.13 1.15 1.13 1.07 1.08 1.13 1.23 1.46 1.70 1.83 1.74 1.65 1.63 1.72
0.05 0.10 0.19 0.35 0.40 0.37 0.44 0.66 0.68 0.51 0.41 0.35 0.36 0.46 0.62 0.82 1.09 1.34 1.59 1.70 1.68 1.49 1.22 0.94 0.79 0.74 0.70 0.73 0.78 0.84 0.89 0.90 0.88 0.90 0.84 0.88 0.95 0.95 0.94 0.91 0.93 1.04 1.16 1.37 1.58 1.64 1.59 1.54 1.54
0.11 0.19 0.27 0.41 0.48 0.58 0.68 0.84 0.74 0.69 0.64 0.61 0.68 0.86 1.07 1.34 1.52 1.66 1.81 1.86 1.60 1.42 1.17 0.92 0.77 0.79 0.78 0.78 0.77 0.78 0.75 0.74 0.73 0.73 0.70 0.70 0.74 0.73 0.76 0.90 0.94 0.99 1.05 1.21 1.46 1.61 1.61 1.54 1.52
0.24 0.38 0.52 0.74 0.71 0.68 0.85 0.96 0.76 0.71 0.79 0.83 0.94 1.00 1.10 1.25 1.27 1.35 1.41 1.36 1.32 1.27 1.10 0.94 0.85 0.85 0.88 0.88 0.86 0.78 0.69 0.66 0.66 0.64 0.57 0.56 0.53 0.51 0.61 0.72 0.76 0.79 0.81 0.96 1.22 1.41 1.44 1.39 1.32